SCP
0 0 0 0 0 0 0 0 0 0 0 0 0 0 0 0 0 0 0 0 0 0 0 0 0 0 0 0 0 0 0 0 0 0 0 0 0 0 0 0 0 0 0 0 0 0 0 0 -0 -0 -0 0 0 -0
0 0 0 0 0 0 0 0 0 0 0 0 0 0 0 0 0 0 0 0 0 0 0 0 0 0 0 0 0 0 0 0 0 0 0 0 0 0 0 0 0 0 0 0 0 0 0 0 0 0 0 0 0 0
0 0 0 0 0 0 0 0 0 0 0 0 0 0 0 0 0 0 0 0 0 0 0 0 0 0 0 0 0 0 0 0 0 0 0 0 0 0 0 0 0 0 0 0 0 0 0 0 0 0 0 0 0 0
0 0 0 0 0 0 0 0 0 0 0 0 0 0 0 0 0 0 0 0 0 0 0 0 0 0 0 0 0 0 0 0 0 0 0 0 0 0 0 0 0 0 0 0 0 0 0 0 0 0 0 0 0 0
0 0 0 0 0 0 0 0 0 0 0 0 0 0 0 0 0 0 0 0 0 0 0 0 -0 -0 0 0 0 0 0 0 0 0 0 0 0 0 0 0 0 0 0 0 0 0 0 0 0 0 0 0 0 0
0 0 0 0 0 0 0 0 0 0 0 0 0 0 0 0 0 0 0 0 0 0 0 0 0 0 0 0 0 0 0 0 0 0 0 0 0 0 0 0 0 0 0 0 0 0 0 0 0 0 0 0 0 0
0 0 0 0 0 0 0 0 0 0 0 0 0 0 0 -0 0 0 0 0 -0 -0 0 0 0 0 0 0 0 0 0 0 0 0 0 0 0 0 0 0 0 0 0 0 0 0 0 0 0 0 0 0 0 0
0 0 0 0 0 0 0 0 0 0 0 0 0 0 -0 -0 -0 0 0 0 0 0 0 0 0 0 0 0 0 0 0 0 0 0 0 0 0 0 0 0 0 0 0 0 0 0 0 0 0 0 0 0 0 0
0 0 0 0 0 0 0 0 0 0 0 0 -0 -0 0 0 0 0 0 0 0 0 0 0 0 0 0 0 0 0 0 0 0 0 0 0 0 0 0 0 0 0 0 0 0 0 0 0 0 0 0 0 0 0
0 0 0 0 0 0 0 0 0 0 0 -0 0 0 0 0 -0 -0 0 0 0 0 0 0 0 0 0 0 0 0 0 0 0 0 0 0 0 0 0 0 0 0 0 0 0 0 0 0 0 0 0 0 -0 0
0 0 0 0 0 0 0 0 0 0 0 0 0 0 0 0 0 0 -0 0 0 0 0 -0 -0 -0 -0 0 0 0 0 0 0 0 0 0 0 0 0 0 0 0 0 0 0 0 0 0 0 0 0 -0 0 0
0 0 0 0 0 0 0 0 0 0 0 0 0 0 0 0 0 -0 -0 -0 0 0 0 0 0 0 0 0 0 0 0 0 0 0 0 0 0 0 0 -0 -0 0 0 0 0 0 0 0 0 0 0 0 0 0
0 0 0 0 0 0 0 0 0 0 0 0 0 0 0 -0 0 0 0 -0 -0 0 -0 0 0 0 0 0 0 0 0 0 0 0 0 0 0 -0 -0 -0 -0 -0 -0 0 0 0 0 0 0 0 0 0 0 0
0 0 0 -0 0 -0 -0 0 0 0 0 0 0 0 0 0 0 -0 -0 0 0 0 0 0 0 0 0 0 0 0 0 0 0 0 0 0 -0 -0 0 -0 0 -0 -0 -0 0 0 0 0 0 0 0 0 0 0
0 0 0 0 0 -0 -0 0 0 0 0 0 0 0 0 0 0 0 0 0 0 0 0 0 0 0 0 0 0 0 0 0 0 0 0 -0 -0 -0 -0 -0 -0 -0 -0 -0 0 0 0 0 0 0 0 0 0 0
0 0 0 0 0 -0 -0 0 0 0 0 0 0 0 -0 -0 -0 -0 0 0 0 0 0 -0 0 -0 0 0 0 0 0 0 0 0 0 0 0 0 -0 0 -0 -0 -0 -0 0 0 0 0 0 0 0 0 0 0
0 0 0 0 -0 -0 -0 0 0 0 0 0 0 0 0 -0 -0 -0 -0 -0 -0 0 0 0 0 0 0 0 0 0 0 0 0 0 0 0 0 0 0 0 0 0 0 0 0 0 0 0 0 0 0 0 0 0
0 0 0 0 0 0 0 0 0 0 0 -0 0 0 0 0 -0 0 0 0 -0 0 0 0 0 0 0 0 0 0 0 0 0 0 0 0 -0 -0 -0 -0 0 0 0 0 0 0 0 0 0 0 0 0 0 0
0 0 0 0 0 0 0 0 0 0 0 0 -0 0 0 -0 -0 0 0 0 0 -0 -0 0 0 0 0 0 0 0 0 0 0 0 0 0 0 0 0 0 0 0 0 0 0 0 0 0 0 0 0 0 0 0
0 0 0 -0 0 0 0 0 0 0 0 -0 -0 0 -0 -0 -0 -0 0 0 -0 -0 0 0 0 0 0 0 0 0 0 0 0 0 0 0 0 0 0 0 0 0 0 0 0 0 0 0 0 0 0 0 0 0
0 0 0 0 0 0 0 0 0 0 -0 -0 -0 -0 -0 0 0 0 0 0 0 0 0 0 0 0 0 0 0 0 0 0 0 0 0 0 0 0 0 0 0 0 0 0 0 0 0 0 0 0 0 0 0 0
0 -0 0 0 0 0 0 0 0 -0 -0 -0 0 0 0 0 0 0 0 0 0 0 0 0 0 0 0 0 0 0 0 0 0 0 0 0 0 0 0 0 0 0 0 0 0 0 0 0 0 0 0 0 0 0
-0 0 0 0 0 0 0 0 -0 -0 -0 -0 0 0 0 0 0 0 0 0 0 0 0 0 0 0 0 0 0 0 0 0 0 0 0 0 0 0 0 0 0 0 0 0 0 0 0 0 0 0 0 0 0 0
0 0 0 0 0 0 -0 -0 0 -0 -0 -0 0 0 0 0 0 0 0 0 0 0 0 0 0 0 0 0 0 0 0 0 0 0 0 0 0 0 0 0 0 0 0 0 0 0 0 0 0 0 0 0 0 0
0 0 0 0 -0 -0 -0 -0 -0 -0 -0 0 0 0 0 0 0 0 0 0 0 0 0 0 0 0 0 0 0 0 0 0 0 0 0 0 0 0 0 0 0 0 0 0 0 0 0 0 0 0 0 0 0 0
0 -0 0 -0 -0 -0 -0 -0 -0 0 0 0 0 0 0 0 0 0 0 0 0 0 0 0 0 0 0 0 0 0 0 0 0 0 0 0 0 -0 0 0 0 0 0 0 0 0 0 0 0 0 0 0 0 0
0 -0 -0 0 0 0 0 0 0 0 0 0 0 0 0 0 0 0 0 0 0 0 0 0 0 0 0 0 0 0 0 0 0 0 0 0 0 0 0 0 0 0 0 0 0 0 0 0 0 0 0 0 -0 -0
-0 -0 0 0 0 0 0 0 0 0 0 0 0 0 0 0 0 0 0 0 0 0 0 0 0 0 0 0 0 0 0 0 0 0 0 0 0 0 0 0 0 0 0 0 -0 -0 -0 -0 -0 0 -0 -0 -0 -0
0 0 0 0 0 0 0 0 0 0 0 0 0 0 0 0 0 0 0 0 0 0 0 0 0 0 0 0 0 0 0 0 0 0 0 0 0 0 0 0 0 -0 -0 -0 -0 0 -0 -0 0 0 -0 -0 -0 -0
0 0 0 0 0 0 0 0 0 0 0 0 0 0 0 0 0 0 0 0 0 0 0 0 0 0 0 0 0 0 0 0 0 0 0 0 0 0 0 -0 -0 0 -0 -0 -0 0 0 0 0 0 -0 -0 0 0
0 0 0 0 0 0 0 0 0 0 0 0 0 0 0 0 0 0 0 0 0 0 0 0 -0 -0 0 0 0 0 0 0 0 0 -0 -0 -0 0 0 0 0 0 0 0 0 0 0 0 0 0 0 0 0 0
0 0 0 0 0 0 0 0 0 0 0 0 0 0 0 -0 0 0 0 0 0 0 0 -0 0 -0 0 0 0 0 0 0 -0 -0 0 0 0 0 0 0 0 0 0 0 0 0 0 0 0 0 0 0 0 0
0 0 0 0 0 0 0 0 0 0 0 0 0 0 -0 -0 0 -0 0 0 0 0 0 0 0 0 0 0 0 0 0 0 0 0 0 0 0 0 0 0 0 0 0 0 0 0 0 0 0 0 0 0 0 0
Wind_Speed_500mb
69 74 72 62 58 61 65 69 73 73 69 70 68 68 63 64 60 60 68 59 57 58 79 76 71 66 48 33 16 13 12 10 5 9 7 8 5 8 5 8 10 9 5 5 4 3 10 8 2 7 8 13 13 9
75 67 54 54 56 61 67 69 71 76 73 70 70 70 68 64 63 61 74 66 63 63 86 107 99 95 96 96 67 32 16 13 21 6 4 5 2 1 8 4 2 4 11 6 12 10 8 16 12 11 10 13 17 14
63 50 48 53 57 61 67 70 72 75 74 72 73 72 72 70 67 62 74 77 71 58 76 63 60 63 60 62 75 42 19 29 22 13 7 5 6 5 6 9 6 7 7 5 5 8 9 21 19 19 18 18 19 15
42 45 48 53 58 64 68 69 71 74 75 77 79 77 75 74 70 63 72 73 70 47 25 85 86 67 63 58 72 94 45 46 33 22 6 5 5 13 6 6 6 8 10 7 10 18 11 24 34 25 25 25 21 20
41 46 51 56 62 64 66 69 72 76 78 81 83 84 80 78 77 75 79 86 81 60 26 60 91 107 76 65 63 75 53 40 32 8 5 7 7 3 3 3 10 12 12 8 11 17 18 9 12 31 33 32 30 29
43 50 52 60 62 63 68 70 76 79 81 85 86 85 79 78 77 82 47 54 31 8 16 9 23 41 45 47 58 66 59 47 23 15 6 9 11 13 5 6 11 35 49 55 17 34 26 16 10 28 32 32 33 32
48 51 53 56 60 65 71 75 78 81 83 87 88 84 87 88 81 65 37 64 81 84 27 6 8 15 7 8 13 20 42 13 14 11 9 8 11 18 5 12 17 22 23 27 40 36 13 25 19 33 33 33 34 33
48 51 53 57 63 67 72 75 79 78 84 88 85 88 96 91 70 67 35 35 31 45 23 6 7 8 6 6 5 8 11 11 15 7 7 5 4 6 10 18 32 39 45 41 46 48 46 30 35 32 39 40 40 38
45 52 55 58 64 69 73 74 77 80 84 82 84 84 63 14 10 58 90 84 61 48 7 4 8 6 7 4 5 6 7 3 2 2 3 6 4 10 12 13 25 29 25 20 20 37 33 28 32 39 45 44 43 40
47 52 56 61 65 67 73 74 76 79 78 79 72 26 18 12 75 87 20 6 9 23 12 4 11 5 10 4 3 4 5 4 3 7 5 2 7 26 40 41 40 30 28 31 27 27 36 38 40 46 51 46 41 34
48 52 58 61 64 69 72 73 71 74 74 57 32 31 71 72 54 8 8 5 6 2 2 2 5 5 12 4 4 2 4 2 3 7 6 4 7 8 5 16 24 37 39 45 51 46 33 32 48 44 44 41 35 34
49 50 58 59 66 71 71 69 65 62 57 59 66 78 36 10 8 4 5 7 6 3 6 3 5 4 8 7 5 2 5 4 4 2 4 6 7 4 17 28 31 23 20 19 35 35 25 19 27 34 35 35 32 25
50 50 57 63 67 65 62 58 52 58 58 65 10 8 6 7 7 1 7 8 6 4 2 1 3 1 3 5 6 4 7 3 1 4 7 7 7 14 25 30 30 19 11 8 18 21 17 15 24 28 34 31 27 22
49 51 56 61 68 57 59 56 51 53 54 11 9 12 5 7 5 2 3 5 9 8 5 6 3 3 5 4 2 7 1 3 3 3 9 5 8 21 28 30 29 19 10 12 16 15 10 15 19 29 31 26 19 14
56 56 55 59 57 51 59 56 49 44 20 11 8 8 4 8 16 14 15 15 10 6 7 1 3 2 2 5 4 6 4 5 9 8 5 5 16 28 33 34 29 20 12 17 23 20 16 23 26 27 24 18 13 6
62 64 58 50 59 51 55 52 44 32 10 11 15 6 8 4 6 14 19 20 14 8 12 10 3 3 3 6 4 10 9 8 6 5 4 15 24 30 37 37 31 21 11 22 23 22 23 24 22 18 17 13 4 6
62 68 57 52 61 52 54 38 17 7 10 11 6 6 8 13 15 8 22 14 16 8 4 4 6 8 4 1 4 6 6 4 1 5 11 20 25 34 35 35 30 16 3 17 19 18 21 23 21 18 13 4 8 14
57 61 41 52 49 55 42 12 9 10 10 13 6 10 18 24 26 25 12 16 8 8 7 3 6 5 6 6 5 4 5 7 8 10 17 17 27 31 31 28 21 11 12 12 15 21 24 20 17 12 6 8 15 21
47 39 42 48 38 32 5 9 12 9 18 12 17 20 17 24 29 26 31 23 21 18 14 6 5 1 3 6 5 11 14 15 13 16 10 19 25 29 26 18 12 9 9 15 21 19 18 14 9 4 8 15 20 26
41 39 48 43 46 17 6 9 10 12 8 7 16 16 19 23 24 20 14 10 10 6 1 4 4 7 10 8 10 8 12 17 17 9 4 15 24 24 19 14 9 13 16 16 15 12 9 4 4 10 14 19 21 19
37 38 44 38 15 11 9 9 11 8 10 9 12 14 12 14 10 7 7 3 4 9 4 9 9 10 6 10 12 11 12 13 13 13 17 23 14 13 15 12 12 12 10 10 8 5 4 7 10 14 16 16 13 11
32 34 22 11 6 7 12 13 10 7 9 12 13 6 9 5 6 7 12 12 9 7 9 10 12 12 7 7 11 16 15 12 14 13 13 13 5 4 7 11 10 10 9 7 6 7 8 10 13 12 9 8 9 11
16 13 8 10 11 8 6 7 6 6 0 6 5 5 3 3 4 6 8 8 6 15 16 13 13 6 5 8 12 15 12 10 9 10 14 16 19 19 17 14 14 11 9 8 9 10 11 11 8 6 9 11 13 14
21 16 9 9 14 7 4 5 5 6 6 5 4 5 1 4 9 6 5 5 7 17 15 13 13 6 4 7 12 12 10 10 13 11 12 15 13 14 12 10 9 9 10 11 11 9 7 6 9 12 15 16 16 18
14 11 8 7 7 2 2 5 5 1 6 5 3 3 2 7 3 5 2 3 11 15 21 14 12 16 15 11 10 11 9 8 12 16 16 15 15 14 11 10 11 12 14 12 7 8 11 14 17 19 19 20 22 27
7 9 7 10 3 6 6 3 5 5 3 3 2 5 5 3 5 0 2 13 13 15 21 18 14 10 13 16 13 9 8 4 6 9 10 10 13 15 18 15 12 10 7 6 10 14 19 22 24 24 25 26 28 29
6 8 7 8 3 3 6 9 8 3 2 4 3 5 3 4 2 5 6 10 14 16 13 11 10 11 12 13 13 12 9 6 5 5 9 12 15 17 18 12 9 8 7 11 18 22 24 27 28 27 27 29 31 30
5 10 7 10 5 2 3 4 4 4 4 10 4 5 4 6 5 6 5 13 11 9 8 8 9 10 11 18 22 21 17 11 5 2 3 9 11 13 11 10 10 10 16 23 26 28 31 31 31 30 31 33 35 31
6 16 11 5 5 8 6 4 3 3 5 3 2 3 4 3 8 7 7 9 8 8 7 10 11 11 11 15 15 14 16 18 12 5 6 9 9 12 15 17 19 23 26 29 33 36 36 35 34 33 32 32 32 28
8 13 9 6 5 3 4 2 3 5 7 7 7 8 8 7 15 16 14 11 9 12 15 16 15 13 13 11 7 11 17 21 16 13 14 17 20 20 20 22 24 27 31 33 35 37 37 35 35 33 30 30 27 30
14 7 9 8 4 4 8 14 15 13 8 10 14 8 7 7 10 23 21 18 18 18 15 13 14 15 12 12 16 13 15 16 18 19 22 23 23 24 26 30 32 34 35 35 35 34 35 34 32 32 32 33 34 34
5 5 10 6 3 15 5 1 3 4 3 4 6 6 4 4 5 8 20 18 16 13 13 12 12 12 13 19 22 19 20 20 21 24 26 28 29 30 32 34 35 35 35 36 36 35 31 32 34 35 37 38 39 39
9 9 11 12 8 6 9 7 2 4 7 5 7 8 7 4 5 9 13 18 16 16 14 12 11 11 16 21 19 23 26 29 30 29 30 32 32 34 34 35 37 39 38 38 35 33 34 36 40 40 41 41 39 38
Wind_Direction_500mb
303 303 305 311 315 318 318 319 318 315 317 316 317 313 314 312 311 310 303 298 296 290 289 286 273 270 265 233 221 174 131 181 135 178 160 227 170 235 111 213 176 175 150 237 64 36 292 171 162 177 202 160 157 182
302 308 311 313 317 317 317 319 320 318 317 317 317 315 312 311 307 306 299 303 303 285 282 287 286 278 261 259 255 207 192 157 177 136 193 105 262 60 168 246 70 288 188 190 175 224 229 193 228 213 195 170 176 190
307 311 314 315 317 317 317 318 318 318 318 319 317 314 312 310 306 304 300 300 303 289 295 276 264 292 285 271 246 226 208 175 188 180 147 186 206 139 177 233 195 258 170 202 54 270 227 224 223 214 202 190 183 197
312 311 314 315 316 317 319 318 317 318 319 319 318 314 312 310 307 304 297 296 291 282 282 283 282 279 280 267 240 231 215 187 201 189 129 161 164 197 221 238 185 201 156 195 257 277 268 236 229 222 195 189 189 184
311 312 315 317 316 317 315 315 316 317 316 317 316 314 310 309 309 304 297 294 285 255 270 282 290 287 291 268 243 219 206 181 161 153 165 204 192 144 274 56 244 195 218 190 222 230 225 253 255 209 197 196 191 182
311 311 314 313 316 315 315 316 317 315 317 316 316 313 310 307 308 305 300 300 293 13 262 279 276 273 272 240 236 232 210 187 178 153 174 218 189 159 222 224 235 219 226 234 239 252 226 249 235 205 203 196 192 188
312 313 314 316 315 315 316 316 316 316 316 316 316 311 308 306 302 293 280 280 284 297 280 275 289 343 341 189 170 165 178 160 157 160 204 171 191 198 212 236 235 235 254 268 259 234 195 216 215 208 207 199 196 192
309 314 314 315 316 317 316 317 317 318 318 317 314 313 311 306 291 286 298 302 299 264 235 230 272 325 137 359 36 87 124 119 165 196 138 159 173 164 256 243 258 258 262 266 259 243 247 247 221 205 205 201 198 198
308 311 315 317 317 318 318 320 319 322 321 318 314 319 319 351 16 318 314 299 268 251 234 174 154 255 153 73 90 70 90 86 168 140 222 146 230 221 239 239 246 240 253 264 242 230 239 237 221 208 204 203 205 201
307 312 313 318 317 322 320 321 320 321 321 319 328 328 302 299 312 314 313 319 155 184 196 181 145 185 161 183 114 90 38 143 161 247 130 141 257 269 265 267 278 269 263 249 222 225 227 221 214 209 212 211 208 205
308 314 314 316 320 320 321 321 323 323 324 333 316 292 299 303 308 286 295 0 355 192 59 45 141 145 189 170 142 178 160 109 113 260 147 280 277 252 277 297 290 287 272 253 243 251 261 262 229 218 214 209 203 205
310 313 316 324 320 322 321 325 324 328 320 309 302 294 295 297 286 346 327 331 21 294 343 37 33 85 161 165 113 164 124 55 216 176 71 279 257 272 328 329 332 311 297 268 229 232 247 248 225 225 219 205 202 206
307 318 319 323 321 321 323 323 325 325 320 322 294 281 279 283 354 348 326 318 351 343 225 210 37 114 130 93 70 98 83 171 39 56 233 233 279 348 341 340 346 330 306 229 213 226 229 236 205 204 194 190 195 208
303 310 318 321 321 321 323 325 322 326 331 288 295 295 212 321 258 272 243 260 269 286 194 133 66 26 359 52 87 87 280 97 40 261 241 257 348 342 344 342 340 339 285 224 203 200 203 186 196 174 173 183 194 207
295 301 308 309 323 316 324 324 320 317 312 264 273 252 265 247 270 291 306 291 272 224 159 106 90 170 45 93 51 104 58 248 206 232 233 330 349 343 345 344 338 327 271 220 207 204 204 183 170 171 176 178 177 200
293 295 295 305 321 314 317 322 326 314 248 240 238 324 313 22 314 332 306 284 302 247 217 264 190 211 211 130 106 215 146 222 254 223 11 352 351 351 346 343 340 325 281 207 202 201 200 196 185 177 172 171 193 299
297 287 289 299 315 306 311 306 309 261 260 261 275 329 331 283 265 279 317 302 299 219 233 208 212 226 97 117 253 191 205 230 174 74 5 354 355 353 352 350 349 345 191 184 189 190 181 177 180 181 180 216 292 311
291 304 292 306 310 306 301 255 244 232 263 277 305 299 315 296 288 298 289 304 268 243 288 288 138 199 198 177 270 278 359 19 66 23 4 3 357 354 354 359 7 44 122 145 159 158 156 171 180 180 215 287 314 324
304 292 305 305 295 288 215 238 228 248 244 272 280 289 296 296 285 288 296 293 250 243 291 264 255 265 37 26 16 42 28 23 346 341 343 354 360 2 3 10 37 77 111 132 142 147 157 171 185 235 307 326 325 318
288 296 299 295 294 227 227 247 235 256 264 286 281 288 301 286 293 299 302 293 223 235 252 14 42 21 360 21 26 20 7 358 352 8 291 355 355 5 15 31 74 101 125 135 139 143 143 144 331 334 328 322 320 324
284 293 306 307 192 189 224 254 241 250 275 267 283 301 289 288 288 290 279 285 89 32 42 38 58 36 40 12 11 6 350 359 12 3 332 334 347 15 32 58 90 109 116 112 105 100 39 4 340 327 323 328 339 356
276 300 290 237 237 230 254 240 258 282 265 275 289 235 272 301 312 337 342 57 57 26 1 348 338 339 346 358 13 14 16 16 4 358 357 0 24 39 66 77 79 91 91 80 55 24 354 337 329 331 347 14 38 47
271 241 193 222 215 230 243 246 251 226 181 276 285 246 218 269 295 343 78 66 75 6 358 351 343 345 61 41 22 10 19 29 22 50 51 56 65 70 66 69 71 61 43 23 1 344 337 342 357 36 64 68 67 57
212 172 214 217 208 250 248 241 239 262 259 258 236 262 146 309 331 68 86 63 13 1 13 20 31 103 72 39 36 38 52 51 47 59 69 64 65 71 69 54 30 8 358 348 347 355 18 57 81 92 90 85 76 66
154 200 202 242 201 95 347 308 254 250 257 222 263 276 9 342 62 57 88 320 344 1 9 23 40 51 51 50 36 38 52 70 80 78 72 63 51 38 21 0 345 341 349 3 36 80 95 99 100 98 92 88 81 77
179 187 156 197 219 146 216 242 215 242 248 257 263 305 345 59 60 305 294 338 339 348 1 16 27 49 40 33 30 39 40 77 86 76 68 36 5 359 359 353 356 0 29 78 104 108 109 107 104 100 96 90 87 91
158 244 181 192 194 238 285 253 266 267 335 359 350 350 47 72 271 261 329 347 347 353 12 15 18 29 34 40 35 26 34 42 32 345 305 316 342 360 6 19 41 64 85 105 113 113 112 110 106 103 96 92 91 89
143 156 153 163 125 29 300 339 12 32 348 346 302 36 121 168 223 330 336 342 3 26 25 28 46 61 67 67 63 59 53 45 34 321 309 11 16 14 19 36 54 87 112 117 117 116 114 112 109 102 100 100 95 88
114 138 133 69 89 53 45 23 31 7 333 358 94 177 218 70 5 18 16 24 33 39 64 71 69 71 69 66 49 27 16 4 14 30 61 83 69 55 70 79 92 107 116 120 122 120 117 112 105 105 102 98 94 95
139 152 101 73 74 36 348 24 59 67 69 93 104 102 82 81 54 53 48 47 59 66 64 63 67 63 53 38 9 342 11 26 46 70 84 85 82 85 90 95 104 114 119 121 122 120 116 115 110 104 99 98 99 99
126 121 91 76 96 64 117 110 98 84 68 65 72 79 125 127 68 45 41 47 55 58 58 61 63 53 33 6 18 40 47 47 67 86 93 93 95 98 103 108 109 112 115 118 120 119 115 112 109 107 107 107 104 97
113 107 127 110 126 163 156 25 88 82 60 59 57 49 67 71 71 52 26 37 47 50 51 51 44 31 6 26 46 51 61 80 97 98 99 102 104 109 111 111 113 115 116 117 115 112 112 110 112 111 109 107 103 100
110 93 93 107 120 182 177 161 117 96 67 67 46 42 40 56 77 36 34 33 41 41 45 45 38 30 46 60 66 79 87 91 95 100 106 108 110 112 116 118 117 113 112 110 109 112 115 115 112 110 107 104 105 105
Wind_Speed_850mb
69 74 72 62 58 61 65 69 73 73 69 70 68 68 63 64 60 60 68 59 57 58 79 76 71 66 48 33 16 13 12 10 5 9 7 8 5 8 5 8 10 9 5 5 4 3 10 8 2 7 8 13 13 9
75 67 54 54 56 61 67 69 71 76 73 70 70 70 68 64 63 61 74 66 63 63 86 107 99 95 96 96 67 32 16 13 21 6 4 5 2 1 8 4 2 4 11 6 12 10 8 16 12 11 10 13 17 14
63 50 48 53 57 61 67 70 72 75 74 72 73 72 72 70 67 62 74 77 71 58 76 63 60 63 60 62 75 42 19 29 22 13 7 5 6 5 6 9 6 7 7 5 5 8 9 21 19 19 18 18 19 15
42 45 48 53 58 64 68 69 71 74 75 77 79 77 75 74 70 63 72 73 70 47 25 85 86 67 63 58 72 94 45 46 33 22 6 5 5 13 6 6 6 8 10 7 10 18 11 24 34 25 25 25 21 20
41 46 51 56 62 64 66 69 72 76 78 81 83 84 80 78 77 75 79 86 81 60 26 60 91 107 76 65 63 75 53 40 32 8 5 7 7 3 3 3 10 12 12 8 11 17 18 9 12 31 33 32 30 29
43 50 52 60 62 63 68 70 76 79 81 85 86 85 79 78 77 82 47 54 31 8 16 9 23 41 45 47 58 66 59 47 23 15 6 9 11 13 5 6 11 35 49 55 17 34 26 16 10 28 32 32 33 32
48 51 53 56 60 65 71 75 78 81 83 87 88 84 87 88 81 65 37 64 81 84 27 6 8 15 7 8 13 20 42 13 14 11 9 8 11 18 5 12 17 22 23 27 40 36 13 25 19 33 33 33 34 33
48 51 53 57 63 67 72 75 79 78 84 88 85 88 96 91 70 67 35 35 31 45 23 6 7 8 6 6 5 8 11 11 15 7 7 5 4 6 10 18 32 39 45 41 46 48 46 30 35 32 39 40 40 38
45 52 55 58 64 69 73 74 77 80 84 82 84 84 63 14 10 58 90 84 61 48 7 4 8 6 7 4 5 6 7 3 2 2 3 6 4 10 12 13 25 29 25 20 20 37 33 28 32 39 45 44 43 40
47 52 56 61 65 67 73 74 76 79 78 79 72 26 18 12 75 87 20 6 9 23 12 4 11 5 10 4 3 4 5 4 3 7 5 2 7 26 40 41 40 30 28 31 27 27 36 38 40 46 51 46 41 34
48 52 58 61 64 69 72 73 71 74 74 57 32 31 71 72 54 8 8 5 6 2 2 2 5 5 12 4 4 2 4 2 3 7 6 4 7 8 5 16 24 37 39 45 51 46 33 32 48 44 44 41 35 34
49 50 58 59 66 71 71 69 65 62 57 59 66 78 36 10 8 4 5 7 6 3 6 3 5 4 8 7 5 2 5 4 4 2 4 6 7 4 17 28 31 23 20 19 35 35 25 19 27 34 35 35 32 25
50 50 57 63 67 65 62 58 52 58 58 65 10 8 6 7 7 1 7 8 6 4 2 1 3 1 3 5 6 4 7 3 1 4 7 7 7 14 25 30 30 19 11 8 18 21 17 15 24 28 34 31 27 22
49 51 56 61 68 57 59 56 51 53 54 11 9 12 5 7 5 2 3 5 9 8 5 6 3 3 5 4 2 7 1 3 3 3 9 5 8 21 28 30 29 19 10 12 16 15 10 15 19 29 31 26 19 14
56 56 55 59 57 51 59 56 49 44 20 11 8 8 4 8 16 14 15 15 10 6 7 1 3 2 2 5 4 6 4 5 9 8 5 5 16 28 33 34 29 20 12 17 23 20 16 23 26 27 24 18 13 6
62 64 58 50 59 51 55 52 44 32 10 11 15 6 8 4 6 14 19 20 14 8 12 10 3 3 3 6 4 10 9 8 6 5 4 15 24 30 37 37 31 21 11 22 23 22 23 24 22 18 17 13 4 6
62 68 57 52 61 52 54 38 17 7 10 11 6 6 8 13 15 8 22 14 16 8 4 4 6 8 4 1 4 6 6 4 1 5 11 20 25 34 35 35 30 16 3 17 19 18 21 23 21 18 13 4 8 14
57 61 41 52 49 55 42 12 9 10 10 13 6 10 18 24 26 25 12 16 8 8 7 3 6 5 6 6 5 4 5 7 8 10 17 17 27 31 31 28 21 11 12 12 15 21 24 20 17 12 6 8 15 21
47 39 42 48 38 32 5 9 12 9 18 12 17 20 17 24 29 26 31 23 21 18 14 6 5 1 3 6 5 11 14 15 13 16 10 19 25 29 26 18 12 9 9 15 21 19 18 14 9 4 8 15 20 26
41 39 48 43 46 17 6 9 10 12 8 7 16 16 19 23 24 20 14 10 10 6 1 4 4 7 10 8 10 8 12 17 17 9 4 15 24 24 19 14 9 13 16 16 15 12 9 4 4 10 14 19 21 19
37 38 44 38 15 11 9 9 11 8 10 9 12 14 12 14 10 7 7 3 4 9 4 9 9 10 6 10 12 11 12 13 13 13 17 23 14 13 15 12 12 12 10 10 8 5 4 7 10 14 16 16 13 11
32 34 22 11 6 7 12 13 10 7 9 12 13 6 9 5 6 7 12 12 9 7 9 10 12 12 7 7 11 16 15 12 14 13 13 13 5 4 7 11 10 10 9 7 6 7 8 10 13 12 9 8 9 11
16 13 8 10 11 8 6 7 6 6 0 6 5 5 3 3 4 6 8 8 6 15 16 13 13 6 5 8 12 15 12 10 9 10 14 16 19 19 17 14 14 11 9 8 9 10 11 11 8 6 9 11 13 14
21 16 9 9 14 7 4 5 5 6 6 5 4 5 1 4 9 6 5 5 7 17 15 13 13 6 4 7 12 12 10 10 13 11 12 15 13 14 12 10 9 9 10 11 11 9 7 6 9 12 15 16 16 18
14 11 8 7 7 2 2 5 5 1 6 5 3 3 2 7 3 5 2 3 11 15 21 14 12 16 15 11 10 11 9 8 12 16 16 15 15 14 11 10 11 12 14 12 7 8 11 14 17 19 19 20 22 27
7 9 7 10 3 6 6 3 5 5 3 3 2 5 5 3 5 0 2 13 13 15 21 18 14 10 13 16 13 9 8 4 6 9 10 10 13 15 18 15 12 10 7 6 10 14 19 22 24 24 25 26 28 29
6 8 7 8 3 3 6 9 8 3 2 4 3 5 3 4 2 5 6 10 14 16 13 11 10 11 12 13 13 12 9 6 5 5 9 12 15 17 18 12 9 8 7 11 18 22 24 27 28 27 27 29 31 30
5 10 7 10 5 2 3 4 4 4 4 10 4 5 4 6 5 6 5 13 11 9 8 8 9 10 11 18 22 21 17 11 5 2 3 9 11 13 11 10 10 10 16 23 26 28 31 31 31 30 31 33 35 31
6 16 11 5 5 8 6 4 3 3 5 3 2 3 4 3 8 7 7 9 8 8 7 10 11 11 11 15 15 14 16 18 12 5 6 9 9 12 15 17 19 23 26 29 33 36 36 35 34 33 32 32 32 28
8 13 9 6 5 3 4 2 3 5 7 7 7 8 8 7 15 16 14 11 9 12 15 16 15 13 13 11 7 11 17 21 16 13 14 17 20 20 20 22 24 27 31 33 35 37 37 35 35 33 30 30 27 30
14 7 9 8 4 4 8 14 15 13 8 10 14 8 7 7 10 23 21 18 18 18 15 13 14 15 12 12 16 13 15 16 18 19 22 23 23 24 26 30 32 34 35 35 35 34 35 34 32 32 32 33 34 34
5 5 10 6 3 15 5 1 3 4 3 4 6 6 4 4 5 8 20 18 16 13 13 12 12 12 13 19 22 19 20 20 21 24 26 28 29 30 32 34 35 35 35 36 36 35 31 32 34 35 37 38 39 39
9 9 11 12 8 6 9 7 2 4 7 5 7 8 7 4 5 9 13 18 16 16 14 12 11 11 16 21 19 23 26 29 30 29 30 32 32 34 34 35 37 39 38 38 35 33 34 36 40 40 41 41 39 38
Wind_Direction_850mb
303 303 305 311 315 318 318 319 318 315 317 316 317 313 314 312 311 310 303 298 296 290 289 286 273 270 265 233 221 174 131 181 135 178 160 227 170 235 111 213 176 175 150 237 64 36 292 171 162 177 202 160 157 182
302 308 311 313 317 317 317 319 320 318 317 317 317 315 312 311 307 306 299 303 303 285 282 287 286 278 261 259 255 207 192 157 177 136 193 105 262 60 168 246 70 288 188 190 175 224 229 193 228 213 195 170 176 190
307 311 314 315 317 317 317 318 318 318 318 319 317 314 312 310 306 304 300 300 303 289 295 276 264 292 285 271 246 226 208 175 188 180 147 186 206 139 177 233 195 258 170 202 54 270 227 224 223 214 202 190 183 197
312 311 314 315 316 317 319 318 317 318 319 319 318 314 312 310 307 304 297 296 291 282 282 283 282 279 280 267 240 231 215 187 201 189 129 161 164 197 221 238 185 201 156 195 257 277 268 236 229 222 195 189 189 184
311 312 315 317 316 317 315 315 316 317 316 317 316 314 310 309 309 304 297 294 285 255 270 282 290 287 291 268 243 219 206 181 161 153 165 204 192 144 274 56 244 195 218 190 222 230 225 253 255 209 197 196 191 182
311 311 314 313 316 315 315 316 317 315 317 316 316 313 310 307 308 305 300 300 293 13 262 279 276 273 272 240 236 232 210 187 178 153 174 218 189 159 222 224 235 219 226 234 239 252 226 249 235 205 203 196 192 188
312 313 314 316 315 315 316 316 316 316 316 316 316 311 308 306 302 293 280 280 284 297 280 275 289 343 341 189 170 165 178 160 157 160 204 171 191 198 212 236 235 235 254 268 259 234 195 216 215 208 207 199 196 192
309 314 314 315 316 317 316 317 317 318 318 317 314 313 311 306 291 286 298 302 299 264 235 230 272 325 137 359 36 87 124 119 165 196 138 159 173 164 256 243 258 258 262 266 259 243 247 247 221 205 205 201 198 198
308 311 315 317 317 318 318 320 319 322 321 318 314 319 319 351 16 318 314 299 268 251 234 174 154 255 153 73 90 70 90 86 168 140 222 146 230 221 239 239 246 240 253 264 242 230 239 237 221 208 204 203 205 201
307 312 313 318 317 322 320 321 320 321 321 319 328 328 302 299 312 314 313 319 155 184 196 181 145 185 161 183 114 90 38 143 161 247 130 141 257 269 265 267 278 269 263 249 222 225 227 221 214 209 212 211 208 205
308 314 314 316 320 320 321 321 323 323 324 333 316 292 299 303 308 286 295 0 355 192 59 45 141 145 189 170 142 178 160 109 113 260 147 280 277 252 277 297 290 287 272 253 243 251 261 262 229 218 214 209 203 205
310 313 316 324 320 322 321 325 324 328 320 309 302 294 295 297 286 346 327 331 21 294 343 37 33 85 161 165 113 164 124 55 216 176 71 279 257 272 328 329 332 311 297 268 229 232 247 248 225 225 219 205 202 206
307 318 319 323 321 321 323 323 325 325 320 322 294 281 279 283 354 348 326 318 351 343 225 210 37 114 130 93 70 98 83 171 39 56 233 233 279 348 341 340 346 330 306 229 213 226 229 236 205 204 194 190 195 208
303 310 318 321 321 321 323 325 322 326 331 288 295 295 212 321 258 272 243 260 269 286 194 133 66 26 359 52 87 87 280 97 40 261 241 257 348 342 344 342 340 339 285 224 203 200 203 186 196 174 173 183 194 207
295 301 308 309 323 316 324 324 320 317 312 264 273 252 265 247 270 291 306 291 272 224 159 106 90 170 45 93 51 104 58 248 206 232 233 330 349 343 345 344 338 327 271 220 207 204 204 183 170 171 176 178 177 200
293 295 295 305 321 314 317 322 326 314 248 240 238 324 313 22 314 332 306 284 302 247 217 264 190 211 211 130 106 215 146 222 254 223 11 352 351 351 346 343 340 325 281 207 202 201 200 196 185 177 172 171 193 299
297 287 289 299 315 306 311 306 309 261 260 261 275 329 331 283 265 279 317 302 299 219 233 208 212 226 97 117 253 191 205 230 174 74 5 354 355 353 352 350 349 345 191 184 189 190 181 177 180 181 180 216 292 311
291 304 292 306 310 306 301 255 244 232 263 277 305 299 315 296 288 298 289 304 268 243 288 288 138 199 198 177 270 278 359 19 66 23 4 3 357 354 354 359 7 44 122 145 159 158 156 171 180 180 215 287 314 324
304 292 305 305 295 288 215 238 228 248 244 272 280 289 296 296 285 288 296 293 250 243 291 264 255 265 37 26 16 42 28 23 346 341 343 354 360 2 3 10 37 77 111 132 142 147 157 171 185 235 307 326 325 318
288 296 299 295 294 227 227 247 235 256 264 286 281 288 301 286 293 299 302 293 223 235 252 14 42 21 360 21 26 20 7 358 352 8 291 355 355 5 15 31 74 101 125 135 139 143 143 144 331 334 328 322 320 324
284 293 306 307 192 189 224 254 241 250 275 267 283 301 289 288 288 290 279 285 89 32 42 38 58 36 40 12 11 6 350 359 12 3 332 334 347 15 32 58 90 109 116 112 105 100 39 4 340 327 323 328 339 356
276 300 290 237 237 230 254 240 258 282 265 275 289 235 272 301 312 337 342 57 57 26 1 348 338 339 346 358 13 14 16 16 4 358 357 0 24 39 66 77 79 91 91 80 55 24 354 337 329 331 347 14 38 47
271 241 193 222 215 230 243 246 251 226 181 276 285 246 218 269 295 343 78 66 75 6 358 351 343 345 61 41 22 10 19 29 22 50 51 56 65 70 66 69 71 61 43 23 1 344 337 342 357 36 64 68 67 57
212 172 214 217 208 250 248 241 239 262 259 258 236 262 146 309 331 68 86 63 13 1 13 20 31 103 72 39 36 38 52 51 47 59 69 64 65 71 69 54 30 8 358 348 347 355 18 57 81 92 90 85 76 66
154 200 202 242 201 95 347 308 254 250 257 222 263 276 9 342 62 57 88 320 344 1 9 23 40 51 51 50 36 38 52 70 80 78 72 63 51 38 21 0 345 341 349 3 36 80 95 99 100 98 92 88 81 77
179 187 156 197 219 146 216 242 215 242 248 257 263 305 345 59 60 305 294 338 339 348 1 16 27 49 40 33 30 39 40 77 86 76 68 36 5 359 359 353 356 0 29 78 104 108 109 107 104 100 96 90 87 91
158 244 181 192 194 238 285 253 266 267 335 359 350 350 47 72 271 261 329 347 347 353 12 15 18 29 34 40 35 26 34 42 32 345 305 316 342 360 6 19 41 64 85 105 113 113 112 110 106 103 96 92 91 89
143 156 153 163 125 29 300 339 12 32 348 346 302 36 121 168 223 330 336 342 3 26 25 28 46 61 67 67 63 59 53 45 34 321 309 11 16 14 19 36 54 87 112 117 117 116 114 112 109 102 100 100 95 88
114 138 133 69 89 53 45 23 31 7 333 358 94 177 218 70 5 18 16 24 33 39 64 71 69 71 69 66 49 27 16 4 14 30 61 83 69 55 70 79 92 107 116 120 122 120 117 112 105 105 102 98 94 95
139 152 101 73 74 36 348 24 59 67 69 93 104 102 82 81 54 53 48 47 59 66 64 63 67 63 53 38 9 342 11 26 46 70 84 85 82 85 90 95 104 114 119 121 122 120 116 115 110 104 99 98 99 99
126 121 91 76 96 64 117 110 98 84 68 65 72 79 125 127 68 45 41 47 55 58 58 61 63 53 33 6 18 40 47 47 67 86 93 93 95 98 103 108 109 112 115 118 120 119 115 112 109 107 107 107 104 97
113 107 127 110 126 163 156 25 88 82 60 59 57 49 67 71 71 52 26 37 47 50 51 51 44 31 6 26 46 51 61 80 97 98 99 102 104 109 111 111 113 115 116 117 115 112 112 110 112 111 109 107 103 100
110 93 93 107 120 182 177 161 117 96 67 67 46 42 40 56 77 36 34 33 41 41 45 45 38 30 46 60 66 79 87 91 95 100 106 108 110 112 116 118 117 113 112 110 109 112 115 115 112 110 107 104 105 105